Location: ????????
(55.5667°N, 37.5833°E)
Time: 10:45:59
(UTC+00:00)

ADEOS Rocket - Pass Details

Date: 14 April 2026
Orbit: 859 x 1304 km, 98.8° (Epoch: 19 May)

Event Time Altitude Azimuth Distance (km) Brightness Sun altitude
Rises 23:08:06 0° 17° (NNE) 4,020 7.7 -21.6°
Reaches altitude 10° 23:10:44 10° 23° (NNE) 3,113 6.8 -21.4°
Maximum altitude 23:17:45 50° 98° (E) 1,557 4.1 -21.0°
Enters shadow 23:23:12 19° 166° (SSE) 2,661 4.9 -20.6°
